[[{"header":{"parameterUnit":"m.s-1","parameterCategory":1,"la1":30.2991,"la2":30.254,"lo1":-89.0895,"lo2":-89.0444,"dy":0.0017,"dx":0.0017,"nx":28,"ny":28,"refTime":"2025-12-05T09:00:00:Z","depth":0,"parameterNumber":2,"parameterNumberName":"U-component_of_WINDS"},"data":[0,0,0,0,0,0,0,0,0,0,0,0,0,0,0,0,0,0,0,0,0,0,0,0,0,0,0,0,0,0,0,0,0,0,0,0,0,0,0,0,0,0,0,0,0,0,0,0,0,0,0,0,0,0,0,0,0,0,0.7592,0.7592,0,0.7576,0.7575,0.7575,0.7572,0.7572,0.7573,0.7573,0.7553,0.7552,0.7552,0,0,0,0,0,0,0,0,0,0,0,0,0,0.7619,0.7618,0.7592,0.7592,0.7592,0.7576,0.7575,0.7575,0.7572,0.7572,0.7573,0.7573,0.7553,0.7552,0.7552,0,0,0,0,0,0,0,0,0,0,0,0,0,0.7605,0.7618,0.7592,0.7588,0.7588,0.7576,0.7575,0.7575,0.7572,0.7572,0.7573,0.7573,0.7553,0.7553,0.7552,0.7541,0,0,0.7549,0.7548,0,0,0,0,0,0,0,0,0.7606,0.7604,0.7589,0.7589,0.7588,0.7576,0.7578,0.7564,0.7572,0.7578,0.7573,0.7573,0.756,0.7559,0.7555,0.754,0.7539,0.7548,0.7548,0.7547,0.7547,0,0,0,0,0,0,0,0.7607,0.7605,0.7585,0.7589,0.7588,0.7587,0.7585,0.7575,0.7568,0.7578,0.7577,0.7576,0.756,0.7556,0.7555,0.7539,0.7548,0.7548,0.7547,0.7547,0.7515,0.7515,0,0,0,0,0,0,0.7609,0.7606,0.7586,0.7585,0.7598,0.7586,0.7584,0.758,0.7568,0.7567,0.7575,0.7575,0.7558,0.7556,0.7554,0.7541,0.7547,0.7546,0.7546,0.7516,0.7515,0.7515,0,0,0,0,0,0,0.7609,0.7607,0.7587,0.7595,0.7593,0.7585,0.758,0.7579,0.7575,0.7567,0.7565,0.7573,0.7558,0.7555,0.7545,0.7541,0.7546,0.7545,0.7516,0.7515,0.7515,0.7516,0,0,0,0,0,0,0.761,0.7607,0.7604,0.7595,0.7592,0.7578,0.758,0.7579,0.7574,0.7574,0.7564,0.7562,0.7558,0.7546,0.7544,0.7539,0.7544,0.7516,0.7516,0.7515,0.7516,0.7516,0.7515,0,0,0,0,0,0.7611,0.7604,0.7604,0.7601,0.7588,0.7578,0.7576,0.7572,0.7574,0.757,0.7564,0.7563,0.7542,0.7545,0.7542,0.7538,0.7516,0.7516,0.7515,0.7516,0.7516,0.7515,0,0,0,0,0,0,0.7611,0.7603,0.7602,0.7592,0.7586,0.7577,0.7572,0.7571,0.7564,0.7564,0.7558,0.7556,0.7546,0.754,0.7544,0.7527,0.7529,0.7528,0.7531,0.753,0.753,0.7531,0.7544,0,0,0,0,0,0.761,0.7603,0.7596,0.7588,0.7585,0.7579,0.7575,0.7572,0.7565,0.7562,0.7556,0.7549,0.754,0.7535,0.7527,0.7516,0.7513,0.7511,0.7511,0.751,0.7509,0.7503,0.7502,0.7513,0.7513,0.7513,0,0,0.7607,0.7602,0.7598,0.7588,0.7583,0.7576,0.7577,0.7569,0.7564,0.7561,0.7551,0.7546,0.7537,0.7526,0.7521,0.7522,0.7506,0.7509,0.7509,0.7508,0.7502,0.7501,0.75,0.7513,0.7513,0.7513,0,0,0.7598,0.7594,0.7587,0.7582,0.7575,0.7571,0.757,0.7562,0.7559,0.7549,0.7547,0.754,0.7526,0.752,0.7515,0.7506,0.7504,0.7503,0.75,0.7494,0.7493,0.7493,0.7489,0.7488,0.7502,0.7502,0.7502,0,0.7596,0.7586,0.7583,0.7576,0.7571,0.757,0.7562,0.7557,0.7548,0.7544,0.7545,0.7529,0.7522,0.751,0.7508,0.7504,0.7502,0.7504,0.7494,0.7493,0.7492,0.7489,0.7488,0.7502,0.7502,0.7502,0.7502,0,0.7583,0.7576,0.7571,0.7563,0.7558,0.755,0.7546,0.7541,0.754,0.7536,0.7526,0.7519,0.751,0.7507,0.7504,0.7495,0.7495,0.7495,0.7497,0.7491,0.7488,0.7487,0.7502,0.7502,0.7502,0.7502,0,0,0.7572,0.7564,0.7562,0.7559,0.7551,0.7545,0.7538,0.753,0.7526,0.752,0.7513,0.7502,0.7503,0.7497,0.7494,0.7489,0.7483,0.749,0.749,0.7489,0.7471,0.7471,0.747,0.7482,0.7481,0.7481,0.7472,0,0.7563,0.7551,0.7548,0.7537,0.7531,0.753,0.7524,0.7518,0.7515,0.7508,0.7504,0.7497,0.7498,0.7494,0.749,0.7484,0.7479,0.7485,0.7475,0.7475,0.7477,0.7468,0.7468,0.746,0.7471,0.7471,0.7471,0,0.755,0.7545,0.7533,0.7528,0.7525,0.7519,0.7512,0.7506,0.75,0.7498,0.7493,0.7491,0.7482,0.7485,0.7474,0.7478,0.7474,0.7471,0.7471,0.7469,0.7472,0.7466,0.7457,0.7456,0.7469,0.7469,0.7469,0,0.7544,0.7534,0.7526,0.7523,0.7516,0.7512,0.7509,0.7503,0.7498,0.7492,0.7489,0.7482,0.7477,0.7471,0.7467,0.747,0.7457,0.7459,0.7454,0.7454,0.7451,0.7451,0.744,0.7449,0.7449,0.7449,0.7449,0,0.7533,0.7526,0.7523,0.7518,0.751,0.7508,0.75,0.7497,0.7492,0.7486,0.7484,0.7479,0.7474,0.7467,0.7464,0.7455,0.7453,0.7451,0.745,0.7451,0.7451,0.7448,0.7448,0.7448,0.7448,0.7448,0.7449,0,0.7525,0.7522,0.7514,0.7508,0.7507,0.7501,0.7496,0.7491,0.7488,0.7481,0.7479,0.7474,0.7466,0.7462,0.7452,0.745,0.744,0.744,0.7443,0.7442,0.7438,0.7439,0.7425,0.7423,0.7432,0.7432,0.7432,0,0.7518,0.7513,0.7508,0.7504,0.7501,0.7495,0.7491,0.7489,0.7484,0.7478,0.7473,0.7466,0.746,0.7448,0.7443,0.7436,0.7435,0.7431,0.7434,0.7435,0.7435,0.7435,0.7435,0.743,0.743,0.743,0.743,0,0.7507,0.7506,0.7501,0.7495,0.7491,0.7486,0.7481,0.7478,0.7475,0.747,0.7463,0.7459,0.745,0.7442,0.7435,0.7431,0.743,0.7429,0.7428,0.7428,0.743,0.7429,0.7441,0.7429,0.7429,0.7429,0.7429,0.7429,0.7499,0.7494,0.749,0.7485,0.7481,0.7477,0.7472,0.7469,0.7464,0.7457,0.7455,0.7448,0.7442,0.7432,0.7428,0.7422,0.7423,0.7421,0.742,0.742,0.7419,0.7432,0.7421,0.7421,0.7421,0.7421,0.7421,0,0.7487,0.7485,0.748,0.7474,0.7469,0.747,0.7465,0.7461,0.7455,0.745,0.7445,0.7437,0.743,0.7425,0.7418,0.7414,0.7414,0.7413,0.7413,0.7412,0.7419,0.7421,0.7413,0.7413,0.7413,0.7413,0.7413,0.7413,0.7481,0.7474,0.7473,0.7464,0.7461,0.7455,0.7452,0.7448,0.7444,0.7436,0.7431,0.7428,0.7423,0.7416,0.741,0.7409,0.7406,0.7405,0.7404,0.741,0.7411,0.7412,0.7414,0.7405,0.7405,0.7397,0.7397,0.7397]},{"header":{"parameterUnit":"m.s-1","parameterCategory":1,"la1":30.2991,"la2":30.254,"lo1":-89.0895,"lo2":-89.0444,"dy":0.0017,"dx":0.0017,"nx":28,"ny":28,"refTime":"2025-12-05T09:00:00:Z","depth":0,"parameterNumber":3,"parameterNumberName":"V-component_of_WINDS"},"data":[0,0,0,0,0,0,0,0,0,0,0,0,0,0,0,0,0,0,0,0,0,0,0,0,0,0,0,0,0,0,0,0,0,0,0,0,0,0,0,0,0,0,0,0,0,0,0,0,0,0,0,0,0,0,0,0,0,0,-3.3556,-3.3556,0,-3.3587,-3.3588,-3.3588,-3.3544,-3.3543,-3.3541,-3.354,-3.357,-3.3572,-3.3575,0,0,0,0,0,0,0,0,0,0,0,0,0,-3.3456,-3.3458,-3.3556,-3.3556,-3.3557,-3.3587,-3.3588,-3.3588,-3.3545,-3.3543,-3.3541,-3.3539,-3.357,-3.3572,-3.3575,0,0,0,0,0,0,0,0,0,0,0,0,0,-3.3494,-3.3458,-3.3556,-3.3539,-3.3537,-3.3587,-3.3588,-3.3588,-3.3545,-3.3543,-3.354,-3.3538,-3.3569,-3.3572,-3.3575,-3.3643,0,0,-3.3586,-3.3587,0,0,0,0,0,0,0,0,-3.3492,-3.3498,-3.3541,-3.354,-3.3539,-3.356,-3.3563,-3.3606,-3.3546,-3.3542,-3.354,-3.3537,-3.3568,-3.3572,-3.3583,-3.3644,-3.3645,-3.3586,-3.3588,-3.3589,-3.359,0,0,0,0,0,0,0,-3.349,-3.3496,-3.3568,-3.3541,-3.354,-3.3529,-3.3531,-3.3571,-3.3568,-3.3542,-3.3539,-3.3544,-3.3567,-3.358,-3.3583,-3.3646,-3.3586,-3.3589,-3.3591,-3.3592,-3.3763,-3.3765,0,0,0,0,0,0,-3.3489,-3.3494,-3.3567,-3.3569,-3.3509,-3.3532,-3.3536,-3.3555,-3.3567,-3.3567,-3.3545,-3.3541,-3.3575,-3.3579,-3.3584,-3.3663,-3.3589,-3.3593,-3.3594,-3.376,-3.3763,-3.3766,0,0,0,0,0,0,-3.3487,-3.3496,-3.3566,-3.3531,-3.3539,-3.3536,-3.3559,-3.3557,-3.3569,-3.357,-3.3569,-3.3559,-3.3573,-3.3579,-3.3628,-3.3663,-3.3594,-3.3597,-3.3757,-3.3761,-3.3765,-3.3822,0,0,0,0,0,0,-3.3485,-3.3496,-3.3522,-3.3532,-3.3541,-3.3611,-3.3561,-3.3559,-3.3575,-3.357,-3.3582,-3.3582,-3.3572,-3.3623,-3.3632,-3.3667,-3.36,-3.3754,-3.3759,-3.3764,-3.3817,-3.3827,-3.3836,0,0,0,0,0,-3.3481,-3.3537,-3.3524,-3.3533,-3.3574,-3.3613,-3.3618,-3.3606,-3.3578,-3.3604,-3.3604,-3.3581,-3.3658,-3.3629,-3.3638,-3.3674,-3.3752,-3.3758,-3.3763,-3.3813,-3.3825,-3.3836,0,0,0,0,0,0,-3.353,-3.3538,-3.3523,-3.3584,-3.3598,-3.3605,-3.3638,-3.362,-3.3642,-3.3636,-3.362,-3.3623,-3.3675,-3.368,-3.3647,-3.374,-3.37,-3.3708,-3.3735,-3.3747,-3.3756,-3.3754,-3.3603,0,0,0,0,0,-3.3549,-3.358,-3.3584,-3.3637,-3.3645,-3.3641,-3.3657,-3.3647,-3.366,-3.3666,-3.367,-3.3684,-3.3711,-3.3729,-3.3754,-3.3817,-3.3819,-3.3847,-3.3856,-3.3864,-3.3871,-3.3904,-3.3916,-3.3785,-3.3784,-3.3784,0,0,-3.3586,-3.3594,-3.3615,-3.3648,-3.3657,-3.369,-3.3646,-3.3682,-3.3705,-3.3671,-3.3718,-3.3721,-3.3735,-3.3792,-3.3816,-3.3797,-3.3907,-3.3871,-3.3878,-3.388,-3.3911,-3.3923,-3.3934,-3.3788,-3.3788,-3.3787,0,0,-3.3671,-3.368,-3.3725,-3.3736,-3.3751,-3.3747,-3.3758,-3.3768,-3.3769,-3.3816,-3.379,-3.3817,-3.3865,-3.3876,-3.3887,-3.3975,-3.3954,-3.3984,-3.4034,-3.4066,-3.4076,-3.4085,-3.4116,-3.4127,-3.3991,-3.3991,-3.3991,0,-3.3715,-3.3763,-3.375,-3.3788,-3.3803,-3.3774,-3.3818,-3.3829,-3.3852,-3.3862,-3.384,-3.3898,-3.3906,-3.3963,-3.3985,-3.3996,-3.4006,-3.3982,-3.4076,-3.4085,-3.4093,-3.4122,-3.4134,-3.3994,-3.3994,-3.3993,-3.3993,0,-3.3817,-3.3851,-3.3885,-3.3908,-3.3926,-3.3968,-3.3959,-3.398,-3.3967,-3.3966,-3.4013,-3.4021,-3.4046,-3.4059,-3.4048,-3.4115,-3.4103,-3.4079,-3.4039,-3.4109,-3.4136,-3.4147,-3.3999,-3.3998,-3.3997,-3.3996,0,0,-3.3934,-3.3949,-3.3961,-3.3971,-3.3986,-3.4011,-3.405,-3.4076,-3.4093,-3.4109,-3.4141,-3.4182,-3.4159,-3.4172,-3.4162,-3.419,-3.4258,-3.4162,-3.4162,-3.4179,-3.4332,-3.435,-3.4363,-3.4244,-3.4246,-3.4248,-3.433,0,-3.4018,-3.4087,-3.4075,-3.4141,-3.4172,-3.4144,-3.4178,-3.419,-3.4189,-3.4214,-3.4213,-3.4241,-3.421,-3.4218,-3.4244,-3.4244,-3.4288,-3.4238,-3.4273,-3.4274,-3.427,-3.4377,-3.4396,-3.4474,-3.4341,-3.4343,-3.4344,0,-3.4125,-3.4146,-3.4215,-3.4224,-3.4236,-3.4267,-3.4289,-3.4314,-3.4326,-3.4324,-3.4338,-3.4322,-3.436,-3.432,-3.4371,-3.4337,-3.4351,-3.4353,-3.4355,-3.4358,-3.4313,-3.4382,-3.4498,-3.451,-3.436,-3.4359,-3.4358,0,-3.4203,-3.4248,-3.4295,-3.4304,-3.4316,-3.4338,-3.4344,-3.4354,-3.437,-3.4389,-3.4399,-3.4422,-3.4434,-3.4452,-3.4442,-3.4414,-3.4495,-3.4454,-3.4493,-3.4493,-3.4511,-3.451,-3.4631,-3.4521,-3.4521,-3.4521,-3.452,0,-3.4298,-3.4341,-3.433,-3.4359,-3.4406,-3.4392,-3.4439,-3.4441,-3.4451,-3.4479,-3.4456,-3.4482,-3.4468,-3.4493,-3.4485,-3.4529,-3.4535,-3.4533,-3.453,-3.4535,-3.4535,-3.4543,-3.4537,-3.4524,-3.4523,-3.4522,-3.4522,0,-3.4393,-3.4387,-3.4436,-3.4443,-3.4446,-3.448,-3.4486,-3.4512,-3.4509,-3.4545,-3.4553,-3.4548,-3.4577,-3.4568,-3.4599,-3.4594,-3.4649,-3.4639,-3.4645,-3.4642,-3.4681,-3.4678,-3.4811,-3.4828,-3.4707,-3.4709,-3.471,0,-3.4454,-3.4486,-3.4497,-3.4514,-3.4522,-3.455,-3.4566,-3.4553,-3.457,-3.4587,-3.4611,-3.4637,-3.4658,-3.4705,-3.4703,-3.4727,-3.4717,-3.4763,-3.4721,-3.4724,-3.4717,-3.4715,-3.4718,-3.4771,-3.4772,-3.4773,-3.4774,0,-3.4562,-3.4557,-3.4582,-3.4605,-3.4624,-3.4642,-3.4657,-3.4672,-3.466,-3.4681,-3.471,-3.4726,-3.4757,-3.4783,-3.4804,-3.4809,-3.479,-3.4787,-3.4798,-3.4802,-3.4804,-3.4803,-3.4667,-3.4784,-3.4783,-3.4783,-3.4782,-3.4782,-3.4641,-3.4669,-3.468,-3.4707,-3.4717,-3.4732,-3.4757,-3.4757,-3.4781,-3.4806,-3.4797,-3.483,-3.484,-3.4866,-3.4874,-3.4899,-3.4882,-3.4897,-3.49,-3.4904,-3.4909,-3.48,-3.4903,-3.4903,-3.4902,-3.4902,-3.4902,0,-3.4748,-3.4754,-3.4779,-3.4801,-3.4822,-3.4802,-3.4818,-3.4837,-3.4866,-3.4878,-3.4899,-3.4932,-3.4957,-3.4958,-3.4981,-3.5001,-3.4992,-3.5007,-3.5005,-3.5006,-3.4923,-3.4912,-3.5013,-3.5013,-3.5013,-3.5013,-3.5013,-3.5013,-3.4806,-3.4851,-3.4847,-3.4897,-3.4902,-3.4934,-3.4945,-3.4958,-3.4967,-3.5005,-3.5026,-3.5026,-3.5033,-3.5056,-3.5078,-3.5078,-3.5087,-3.5105,-3.5101,-3.5024,-3.5012,-3.5002,-3.4991,-3.5108,-3.5108,-3.5182,-3.5183,-3.5184]}]]